User: anonymous   Login
Location: Castelbiague
(43.0361°N, 0.9246°E)
Time: 10:35:54
(UTC+00:00)
Language:

Cosmos 1606 Rocket - Orbit

View from above orbital plane
View from above orbital plane
View from above satellite
View from above satellite

Ground track
Ground track

The orbit data is extracted from the following two-line orbital elements,

1 15370U 84111B   21267.70702613  .00000128  00000-0  12612-4 0  9992
2 15370  82.5193 344.4257 0019657 310.5396  49.4106 14.83774955974467
Epoch (UTC): 24 September 2021 16:58:07
Eccentricity: 0.0019657
inclination: 82.5193°
perigee height: 603 km
apogee height: 631 km
right ascension of ascending node: 344.4257°
argument of perigee: 310.5396°
revolutions per day: 14.83774955
mean anomaly at epoch: 49.4106°
orbit number at epoch: 97446

The dashed part of the orbit path shows where the satellite is in the earth's shadow,  

DLR